Stations météo

Publicité
Laval-Etronnier, France (7134): Température de l'air & dewpoint: 07.12.2018 11:00:00 - 13.12.2018 11:00:00 (CET)Laval-Etronnier, France (7134): Température de l'air 5cm: 07.12.2018 11:00:00 - 13.12.2018 11:00:00 (CET)Laval-Etronnier, France (7134): Température de l'air -20cm & Température de l'air -100cm: 07.12.2018 11:00:00 - 13.12.2018 11:00:00 (CET)Laval-Etronnier, France (7134): Vitesse du vent & gusts: 07.12.2018 11:00:00 - 13.12.2018 11:00:00 (CET)Laval-Etronnier, France (7134): Direction du vent: 07.12.2018 11:00:00 - 13.12.2018 11:00:00 (CET)Laval-Etronnier, France (7134): reduced air pressure: 07.12.2018 11:00:00 - 13.12.2018 11:00:00 (CET)Laval-Etronnier, France (7134): visibility: 07.12.2018 11:00:00 - 13.12.2018 11:00:00 (CET)Laval-Etronnier, France (7134): Ensoleillement: 07.12.2018 11:00:00 - 13.12.2018 11:00:00 (CET)Laval-Etronnier, France (7134): Quantités de précipitations: 07.12.2018 11:00:00 - 13.12.2018 11:00:00 (CET)
Date & Time tt [°C] td [°C] tt 5cm [°C] tt -20cm [°C] tt -100cm [°C] ff [km/h] ff [knt] fx [km/h] fx [knt] dd ppp [hPa] vv [km] sd [min] rr [mm]
13.12.2018 11:00:00 1,1 -1,8 1,0 5,3 11,5 22 12 34 18 E 1011,6 13 0 0,0
13.12.2018 10:00:00 0,7 -1,7 0,1 5,3 11,5 18 10 33 18 E 1011,1 12 0 0,0
13.12.2018 09:00:00 0,2 -1,6 0,1 5,4 11,5 24 13 37 20 E 1010,8 10 0 0,0
13.12.2018 08:00:00 0,4 -1,5 0,1 5,5 11,5 22 12 42 23 E 1011,0 11 0 0,0
13.12.2018 07:00:00 0,3 -1,6 -0,3 5,6 11,6 19 10 32 17 E 1011,3 12 0 0,0
13.12.2018 06:00:00 0,4 -1,5 0,1 5,7 11,6 20 11 35 19 E 1011,4 13 0 0,0
13.12.2018 05:00:00 0,6 -1,6 0,4 5,8 11,6 16 9 36 19 E 1012,0 15 0 0,0
13.12.2018 04:00:00 0,6 -1,5 0,5 5,9 11,6 22 12 41 22 E 1012,4 15 0 0,0
13.12.2018 03:00:00 0,8 -1,4 0,7 6,0 11,6 25 13 34 18 E 1013,1 18 0 0,0
13.12.2018 02:00:00 1,1 -1,3 0,7 6,1 11,6 19 10 31 17 E 1014,0 20 0 0,0
13.12.2018 01:00:00 1,2 -0,9 0,0 6,2 11,6 20 11 29 15 E 1014,8 20 0 0,0
13.12.2018 00:00:00 0,9 -1,0 0,2 6,4 11,6 15 8 29 16 E 1015,4 20 0 0,0
12.12.2018 23:00:00 1,1 -0,8 0,2 6,5 11,6 17 9 24 13 E 1016,0 20 0 0,0
12.12.2018 22:00:00 1,4 -1,2 0,5 6,7 11,6 17 9 27 15 ESE 1016,5 20 0 0,0
12.12.2018 21:00:00 1,8 -1,3 0,5 6,9 11,6 20 11 31 17 E 1016,6 20 0 0,0
12.12.2018 20:00:00 1,6 -1,5 0,3 7,1 11,6 12 7 21 11 ESE 1017,4 20 0 0,0
12.12.2018 19:00:00 2,3 -1,3 0,7 7,4 11,6 9 5 29 16 ESE 1018,0 20 0 0,0
12.12.2018 18:00:00 3,3 -0,9 2,2 7,5 11,6 19 11 27 15 E 1018,1 20 0 0,0
12.12.2018 17:00:00 4,2 -0,4 3,8 7,6 11,7 12 6 19 10 E 1018,9 20 12 0,0
12.12.2018 16:00:00 4,5 -0,1 4,3 7,7 11,7 16 9 25 13 E 1019,1 20 0 0,0
12.12.2018 15:00:00 5,1 1,4 5,5 7,6 11,7 13 7 24 13 ESE 1019,3 20 0 0,0
12.12.2018 14:00:00 5,0 0,9 5,6 7,5 11,7 18 10 25 14 E 1020,0 20 0 0,0
12.12.2018 13:00:00 4,7 1,9 5,6 7,4 11,7 16 9 26 14 E 1020,5 18 0 0,0
12.12.2018 12:00:00 4,3 2,0 4,9 7,3 11,7 18 10 27 14 ESE 1021,0 16 0 0,0
12.12.2018 11:00:00 3,7 2,2 3,5 7,3 11,7 15 8 22 12 ESE 1021,5 11 0 0,0
12.12.2018 10:00:00 3,2 2,2 3,4 7,4 11,7 18 10 26 14 E 1021,2 10 0 0,0
12.12.2018 09:00:00 3,3 2,1 3,3 7,4 11,7 13 7 23 12 E 1021,5 9 0 0,0
12.12.2018 08:00:00 3,3 2,3 3,2 7,5 11,7 11 6 19 10 ESE 1021,6 8 0 0,0
12.12.2018 07:00:00 3,1 2,2 3,1 7,5 11,7 13 7 24 13 ESE 1021,4 8 0 0,0
12.12.2018 06:00:00 3,1 2,2 3,1 7,6 11,7 14 8 23 13 ESE 1021,6 8 0 0,0
12.12.2018 05:00:00 3,1 1,9 3,1 7,7 11,8 12 7 22 12 SE 1022,0 9 0 0,0
12.12.2018 04:00:00 3,4 2,4 3,1 7,8 11,8 13 7 27 14 ESE 1021,9 9 0 0,0
12.12.2018 03:00:00 3,7 2,8 3,8 7,9 11,8 16 9 24 13 ESE 1022,1 9 0 0,0
12.12.2018 02:00:00 3,8 2,9 3,4 7,9 11,8 8 5 21 11 SE 1022,5 9 0 0,0
12.12.2018 01:00:00 3,8 2,8 3,4 8,0 11,8 11 6 20 11 SE 1022,8 8 0 0,0
12.12.2018 00:00:00 3,8 3,2 3,8 8,1 11,8 14 8 26 14 ESE 1022,7 6 0 0,0
11.12.2018 23:00:00 4,3 3,7 4,3 8,2 11,8 16 9 24 13 ESE 1022,7 4,7 0 0,0
11.12.2018 22:00:00 4,9 4,6 4,8 8,2 11,8 11 6 26 14 SE 1023,0 4,3 0 0,0
11.12.2018 21:00:00 4,9 4,9 4,9 8,3 11,8 16 9 24 13 ESE 1023,0 4,9 0 0,0
11.12.2018 20:00:00 4,9 4,9 5,0 8,3 11,8 11 6 22 12 SE 1023,6 0,6 0 0,0
11.12.2018 19:00:00 4,8 4,7 4,7 8,4 11,8 10 5 14 8 SE 1023,6 1,5 0 0,0
11.12.2018 18:00:00 4,7 4,6 4,7 8,4 11,8 9 5 16 9 SE 1023,8 2,7 0 0,0
11.12.2018 17:00:00 5,0 4,9 5,1 8,4 11,8 9 5 13 7 SE 1024,0 8 0 0,0
11.12.2018 16:00:00 5,4 5,4 5,9 8,4 11,8 7 4 13 7 ESE 1024,0 3,3 0 0,0
11.12.2018 15:00:00 5,5 5,5 6,4 8,2 11,8 8 4 15 8 SE 1024,3 6 2 0,0
11.12.2018 14:00:00 5,0 5,0 5,4 8,0 11,9 9 5 13 7 ESE 1024,9 2,3 6 0,0
11.12.2018 13:00:00 4,1 4,1 5,2 7,8 11,9 6 4 11 6 ESE 1025,4 0,1 0 0,0
11.12.2018 12:00:00 3,5 3,5 4,0 7,7 11,9 3 1 7 4 E 1026,2 0,1 0 0,0
11.12.2018 11:00:00 2,5 2,5 2,8 7,6 11,9 2 1 5 3 E 1026,6 0,1 0 0,0
11.12.2018 10:00:00 1,6 1,6 1,7 7,5 11,9 2 1 6 3 NNE 1026,7 0,1 9 0,0
11.12.2018 09:00:00 1,3 1,3 1,4 7,6 11,9 4 2 7 4 NNE 1026,6 0,1 0 0,0
11.12.2018 08:00:00 1,6 1,6 1,6 7,7 11,9 5 3 9 5 NNE 1026,8 0,1 0 0,0
11.12.2018 07:00:00 1,8 1,8 1,2 7,8 11,9 4 2 10 5 N 1026,8 0,1 0 0,0
11.12.2018 06:00:00 1,6 1,6 0,8 7,9 11,9 4 2 7 4 N 1027,1 0,1 0 0,0
11.12.2018 05:00:00 2,0 1,9 -0,3 8,0 11,9 3 2 4 2 N 1027,5 0,2 0 0,0
11.12.2018 04:00:00 2,8 2,7 -0,6 8,2 11,9 2 1 4 2 ENE 1028,2 0,2 0 0,0
11.12.2018 03:00:00 3,4 3,3 -0,6 8,3 11,9 0 0 4 2 N 1028,3 0,2 0 0,0
11.12.2018 02:00:00 4,3 3,9 -0,2 8,5 11,9 0 0 3 2 N 1028,6 0,3 0 0,0
11.12.2018 01:00:00 4,8 4,2 0,3 8,7 11,9 4 2 7 4 WNW 1029,3 2,7 0 0,0
11.12.2018 00:00:00 5,5 4,8 0,7 8,9 11,9 3 2 6 3 WSW 1029,5 7 0 0,0
10.12.2018 23:00:00 6,2 5,2 3,6 9,0 11,9 4 2 8 4 SW 1029,3 11 0 0,0
10.12.2018 22:00:00 7,5 5,6 4,7 9,1 11,9 2 1 10 6 W 1029,6 18 0 0,0
10.12.2018 21:00:00 7,5 5,5 4,5 9,3 12,0 5 3 8 5 W 1029,9 20 0 0,0
10.12.2018 20:00:00 8,1 5,7 6,1 9,5 12,0 5 3 9 5 NW 1030,4 20 0 0,0
10.12.2018 19:00:00 8,1 5,7 5,4 9,6 12,0 5 3 11 6 WNW 1030,2 20 0 0,0
10.12.2018 18:00:00 8,2 5,5 4,6 9,7 12,0 5 3 11 6 W 1030,2 20 0 0,0
10.12.2018 17:00:00 9,5 5,7 8,8 9,7 12,0 5 3 19 11 WNW 1030,2 20 0 0,0
10.12.2018 16:00:00 9,6 5,8 8,4 9,7 12,0 15 8 24 13 NW 1030,4 20 0 0,0
10.12.2018 15:00:00 10,7 6,8 11,8 9,4 12,0 10 6 19 11 W 1030,3 20 55 0,0
10.12.2018 14:00:00 9,8 6,3 10,0 9,2 12,0 14 8 22 12 W 1030,5 20 7 0,0
10.12.2018 13:00:00 9,4 6,5 10,6 8,9 12,0 13 7 20 11 W 1031,2 19 32 0,0
10.12.2018 12:00:00 9,0 6,4 9,2 8,7 12,0 10 6 18 10 WSW 1031,5 18 38 0,0
10.12.2018 11:00:00 7,9 5,7 8,6 8,5 12,0 10 5 16 9 W 1031,7 15 60 0,0
10.12.2018 10:00:00 6,2 5,2 4,1 8,6 12,0 7 4 12 7 W 1031,4 13 47 0,0
10.12.2018 09:00:00 5,1 4,4 3,1 8,7 12,0 0 0 12 6 N 1031,0 11 0 0,0
10.12.2018 08:00:00 5,7 4,8 3,5 8,8 12,0 5 3 10 5 S 1030,7 12 0 0,0
10.12.2018 07:00:00 6,5 5,4 5,4 8,8 12,0 6 3 20 11 WNW 1030,4 12 0 0,0
10.12.2018 06:00:00 6,4 5,0 5,6 8,9 12,0 14 8 23 12 W 1029,8 13 0 0,0
10.12.2018 05:00:00 6,5 5,3 5,7 9,0 12,0 16 9 32 17 W 1029,3 14 0 0,0
10.12.2018 04:00:00 7,3 5,6 6,5 9,1 12,0 21 12 30 16 W 1029,5 15 0 0,0
10.12.2018 03:00:00 7,6 5,7 6,7 9,2 12,0 21 12 32 18 W 1029,2 15 0 0,0
10.12.2018 02:00:00 7,7 6,0 6,7 9,4 12,0 21 12 36 19 W 1029,0 15 0 0,0
10.12.2018 01:00:00 7,7 6,0 6,9 9,5 12,0 21 11 31 17 W 1028,6 13 0 0,0
10.12.2018 00:00:00 8,1 6,6 7,3 9,6 12,0 20 11 32 17 W 1028,0 12 0 0,0
09.12.2018 23:00:00 8,5 6,8 7,4 9,7 12,0 20 11 34 18 W 1027,7 14 0 0,0
09.12.2018 22:00:00 8,7 6,8 7,5 9,8 12,0 18 10 28 15 W 1027,0 16 0 0,0
09.12.2018 21:00:00 8,9 7,2 7,8 9,8 12,0 16 9 31 17 W 1026,3 19 0 0,2
09.12.2018 20:00:00 9,3 7,6 8,4 9,9 12,1 16 9 33 18 W 1025,4 9 0 0,2
09.12.2018 19:00:00 9,9 6,6 8,8 9,9 12,0 15 8 42 23 W 1024,6 20 0 0,0
09.12.2018 18:00:00 10,3 6,4 9,4 10,0 12,1 18 10 48 26 WNW 1023,3 18 0 0,0
09.12.2018 17:00:00 10,8 6,3 10,1 10,0 12,1 27 14 47 26 WNW 1022,2 20 11 0,0
09.12.2018 16:00:00 11,3 6,2 9,6 10,0 12,1 27 15 55 30 WNW 1020,5 19 6 0,0
09.12.2018 15:00:00 11,8 5,9 11,1 9,9 12,0 33 18 62 33 W 1019,1 20 0 0,0
09.12.2018 14:00:00 11,7 6,4 9,9 9,8 12,1 34 18 58 31 W 1018,6 20 4 0,0
09.12.2018 13:00:00 11,4 7,1 9,9 9,6 12,1 35 19 61 33 W 1018,2 14 14 0,0
09.12.2018 12:00:00 11,1 7,0 9,7 9,4 12,1 35 19 58 32 W 1017,9 18 28 0,0
09.12.2018 11:00:00 9,9 6,4 9,1 9,4 12,1 34 18 55 30 W 1017,7 13 24 0,0
09.12.2018 10:00:00 9,5 5,3 8,2 9,4 12,1 30 16 52 28 W 1016,8 16 30 0,0
09.12.2018 09:00:00 9,1 4,9 7,2 9,4 12,1 29 15 46 25 WSW 1016,4 15 0 0,0
09.12.2018 08:00:00 9,0 5,2 8,1 9,5 12,1 24 13 44 24 WSW 1016,1 14 0 0,0
09.12.2018 07:00:00 9,1 5,1 8,3 9,6 12,1 23 12 40 22 WSW 1015,8 16 0 0,0
09.12.2018 06:00:00 9,5 4,5 8,3 9,7 12,1 29 16 44 24 W 1015,3 16 0 0,0
09.12.2018 05:00:00 9,4 4,8 7,2 9,9 12,1 26 14 57 31 W 1014,8 13 0 0,0
09.12.2018 04:00:00 9,5 5,7 7,7 10,0 12,1 30 16 57 31 W 1014,9 13 0 0,8
09.12.2018 03:00:00 10,0 6,3 8,2 10,0 12,1 27 14 50 27 W 1014,1 13 0 0,2
09.12.2018 02:00:00 10,2 6,7 8,6 10,1 12,1 31 17 64 35 W 1013,8 13 0 0,8
09.12.2018 01:00:00 10,2 8,0 9,1 10,1 12,1 30 16 49 27 W 1013,2 4,6 0 1,0
09.12.2018 00:00:00 11,3 7,2 10,4 10,2 12,2 29 16 52 28 WSW 1012,8 11 0 0,0
08.12.2018 23:00:00 11,4 7,3 10,4 10,3 12,2 28 15 58 31 WSW 1012,7 13 0 0,0
08.12.2018 22:00:00 11,7 7,8 10,8 10,3 12,1 29 16 54 29 WSW 1012,5 14 0 0,0
08.12.2018 21:00:00 11,8 8,6 10,5 10,4 12,2 33 18 56 30 WSW 1012,5 16 0 0,0
08.12.2018 20:00:00 12,0 9,2 10,5 10,3 12,2 24 13 44 24 WSW 1012,3 20 0 0,0
08.12.2018 19:00:00 12,3 10,7 11,3 10,2 12,2 30 16 52 28 W 1012,9 20 0 0,6
08.12.2018 18:00:00 11,8 10,9 11,0 10,1 12,2 24 13 48 26 WSW 1012,9 9 0 0,4
08.12.2018 17:00:00 11,5 10,6 10,8 10,0 12,2 27 15 51 28 SW 1013,5 7 0 0,0
08.12.2018 16:00:00 11,4 10,1 10,6 9,8 12,2 28 15 53 28 SW 1014,0 14 0 0,2
08.12.2018 15:00:00 11,3 9,7 10,3 9,7 12,2 27 15 50 27 SW 1015,3 6 0 0,0
08.12.2018 14:00:00 10,8 9,6 10,1 9,6 12,2 23 13 41 22 SW 1016,4 6 0 0,2
08.12.2018 13:00:00 10,6 8,9 9,7 9,4 12,2 18 10 41 22 SW 1017,5 18 0 0,0
08.12.2018 12:00:00 10,8 7,5 10,7 9,2 12,2 19 11 45 24 SW 1018,3 18 0 0,0
08.12.2018 11:00:00 10,7 6,8 10,1 9,0 12,2 27 15 46 25 WSW 1018,5 18 32 0,0
08.12.2018 10:00:00 9,8 6,1 8,6 8,9 12,2 25 13 42 23 WSW 1018,9 17 3 0,0
08.12.2018 09:00:00 8,8 5,9 7,8 8,9 12,2 20 11 36 20 WSW 1018,9 18 0 0,0
08.12.2018 08:00:00 8,6 5,7 7,6 8,9 12,2 18 10 40 21 WSW 1018,8 19 0 0,0
08.12.2018 07:00:00 8,4 5,7 7,6 8,9 12,2 20 11 37 20 SW 1018,1 20 0 0,0
08.12.2018 06:00:00 8,4 5,5 7,2 8,9 12,2 17 9 36 19 SW 1018,2 20 0 0,0
08.12.2018 05:00:00 8,2 5,5 7,2 9,0 12,2 20 11 40 22 WSW 1018,1 19 0 0,0
08.12.2018 04:00:00 8,0 5,3 7,0 9,0 12,2 20 11 40 21 WSW 1018,2 20 0 0,0
08.12.2018 03:00:00 7,7 4,8 6,4 9,1 12,2 19 10 36 20 WSW 1018,6 20 0 0,0
08.12.2018 02:00:00 7,3 4,4 6,1 9,2 12,2 24 13 39 21 WSW 1018,6 19 0 0,0
08.12.2018 01:00:00 7,0 4,1 5,9 9,4 12,2 22 12 35 19 WSW 1019,0 20 0 0,0
08.12.2018 00:00:00 6,9 3,9 5,5 9,6 12,2 19 10 34 18 WSW 1018,9 20 0 0,0
07.12.2018 23:00:00 6,6 3,6 5,8 9,8 12,2 16 9 34 18 SW 1018,6 20 0 0,0
07.12.2018 22:00:00 6,9 3,7 5,8 10,0 12,2 20 11 34 18 WSW 1018,4 20 0 0,0
07.12.2018 21:00:00 6,9 3,7 5,1 10,2 12,1 19 10 32 17 WSW 1018,2 20 0 0,0
07.12.2018 20:00:00 6,4 3,2 5,4 10,6 12,2 18 10 40 22 WSW 1017,6 20 0 0,0
07.12.2018 19:00:00 7,7 2,4 5,8 10,8 12,2 27 15 66 35 W 1016,4 20 0 0,0
07.12.2018 18:00:00 8,6 5,3 7,4 11,0 12,1 17 9 41 22 W 1015,4 20 0 0,0
07.12.2018 17:00:00 8,8 4,8 7,4 11,3 12,2 26 14 46 25 W 1013,7 20 24 0,0
07.12.2018 16:00:00 8,9 4,5 6,8 11,5 12,2 26 14 95 51 W 1012,5 20 22 0,4
07.12.2018 15:00:00 11,2 6,3 11,0 11,5 12,2 31 17 53 29 W 1011,1 20 46 0,0
07.12.2018 14:00:00 10,8 7,5 8,8 11,5 12,2 28 15 48 26 W 1010,4 20 22 0,0
07.12.2018 13:00:00 9,4 7,3 8,7 11,5 12,2 27 15 61 33 WNW 1010,0 20 0 3,3
07.12.2018 12:00:00 12,0 11,5 11,2 11,5 12,1 28 15 63 34 SSW 1008,8 6 0 2,8
07.12.2018 11:00:00 11,6 10,8 10,9 11,5 12,2 31 17 53 29 SSW 1010,6 20 0 0,8

tt = Température de l'air
td = dewpoint
tt 5cm = Température de l'air 5cm
tt -20cm = Température de l'air -20cm
tt -100cm = Température de l'air -100cm
ff = Vitesse du vent
fx = gusts
dd = Direction du vent
ppp = reduced air pressure
vv = visibility
sd = Ensoleillement
rr = Quantités de précipitations

stations d'obs. à proximité